Showing default

OPS 7034 (TRANSIT 18), 3133

Orbit data source: Space-Track

OPS 7034 (TRANSIT 18), 3133 is a payload satellite owned by USN NAVAIR (US) in LEO that was launched on Sat, 02 Mar 1968 UTC via an SCOUT A launch vehicle from the Air Force Western Test Range (AFWTR). Payload-class satellites include a variety of spacecraft equipped with specific instruments for various scientific and technological missions. These include communications satellites like Starlink; space stations such as the ISS; scientific satellites like the Hubble; Earth observation satellites from companies like Planet Labs, Umbra, and HawkEye 360; GPS; miniature CubeSats for education and research; and military/defense satellites.

Loading next visibility...
Identifier
3133, 1968-012A
Orbit
LEO
Country
Flag of USUS
Related business
Manufacturer
RCA/East Windsor
Mission
Spacecraft
Bus & Motor
TRANSIT 5, Unknown motor
Mass
60 kg wet, 60 kg dry
Launch date (UTC)
1968-03-02 (58 years ago)
Launch vehicle
SCOUT A
Launch site
Air Force Western Test Range (AFWTR)
Object type
Payload
Rocket body
Debris
Shape & HBR
Unknown
Radar Cross Section
Medium (>0.1 m² and <1 m²)

Expand to show TLE details & history
Last TLE update: 10 hours ago

TLE from 10 hours ago
0 OPS 7034 (TRANSIT 18)
1 03133U 68012A   26175.22344140  .00000053  00000-0  67216-4 0  9992
2 03133  90.0289 274.1257 0072488 331.4272  87.1629 13.51609676595320
Epoch: 2026-06-24T05:21Z
TLE epoch observation values (Epoch: 2026-06-24T05:21:45.336Z)
Latitude
59.51053°
Longitude
-78.74577°
Altitude
1,074.243 km
Speed
7.322 km/s
True Right ascension
18h 16m 18s
True Declination
59° 21' 59"
Sunlit
Object was in daylight at epoch
Visualization orbit readout
Latitude
Unknown
Longitude
Unknown
Altitude
Unknown
Speed
Unknown
Apparent Right ascension
Unknown
Apparent Declination
Unknown
Sunlit
N/A
Visualization observer readout
Local Sidereal Time
02:46:14
Azimuth
Unknown
Elevation
Unknown
Doppler factor
Unknown
Orbital elements
Apogee altitude
1,117.331 km
Perigee altitude
1,009.447 km
Semi-major axis
7,441.526 km
Eccentricity
0.00725
Inclination
90.0289°
RAAN
274.1257°
Arg. of periapsis
331.4272°
True anomaly
87.99288°
Mean anomaly
87.1629°
Eccentric anomaly
87.57785°
Mean motion
3.38104 °/min
Orbital period
106.48 mins
BSTAR
0.000067216
Loading maneuver chart data...
Computing Atmospheric mass density...
Loading historical data...
Loading historical data...
Loading historical data...
Loading historical data...
Loading historical data...
Loading historical data...
Loading historical data...

Documentation

Showing up to 5 results
|